TimeEDT,TemperatureF,Dew PointF,Humidity,Sea Level PressureIn,VisibilityMPH,Wind Direction,Wind SpeedMPH,Gust SpeedMPH,PrecipitationIn,Events,Conditions,WindDirDegrees,DateUTC
12:54 AM,63.0,57.9,84,30.13,10.0,NNE,12.7,-,0.01,Rain,Light Rain,20,2013-10-09 04:54:00
1:20 AM,62.6,57.2,82,30.13,8.0,NNE,12.7,-,0.01,Rain,Light Rain,20,2013-10-09 05:20:00
1:29 AM,62.6,57.2,82,30.13,10.0,NNE,12.7,20.7,0.02,Rain,Light Rain,20,2013-10-09 05:29:00
1:46 AM,62.6,57.2,82,30.12,10.0,North,15.0,-,0.02,Rain,Light Rain,10,2013-10-09 05:46:00
1:54 AM,63.0,57.9,84,30.12,10.0,NNE,13.8,-,0.02,Rain,Light Rain,20,2013-10-09 05:54:00
2:33 AM,62.6,59.0,88,30.10,10.0,NNE,19.6,-,0.00,Rain,Light Rain,20,2013-10-09 06:33:00
2:54 AM,64.0,59.0,84,30.08,10.0,NNE,18.4,26.5,0.01,Rain,Light Rain,20,2013-10-09 06:54:00
3:37 AM,62.6,59.0,88,30.09,10.0,NNE,18.4,21.9,0.02,Rain,Light Rain,20,2013-10-09 07:37:00
3:54 AM,63.0,60.1,90,30.08,10.0,NNE,17.3,24.2,0.02,Rain,Light Rain,20,2013-10-09 07:54:00
4:54 AM,64.0,61.0,90,30.09,6.0,NNE,19.6,28.8,0.06,Rain,Rain,30,2013-10-09 08:54:00
5:49 AM,64.4,62.6,94,30.09,4.0,NNE,18.4,26.5,0.17,Rain,Rain,30,2013-10-09 09:49:00
5:54 AM,64.0,62.1,93,30.09,4.0,NNE,18.4,26.5,0.19,Rain,Rain,30,2013-10-09 09:54:00
6:21 AM,64.4,62.6,94,30.08,4.0,NNE,18.4,-,0.07,Rain,Rain,20,2013-10-09 10:21:00
6:37 AM,64.4,62.6,94,30.08,3.0,NNE,19.6,26.5,0.15,Rain,Rain,30,2013-10-09 10:37:00
6:54 AM,64.0,62.1,93,30.08,5.0,NNE,24.2,28.8,0.21,Rain,Rain,30,2013-10-09 10:54:00
7:54 AM,64.0,62.1,93,30.08,5.0,NNE,16.1,26.5,0.27,Rain,Rain,20,2013-10-09 11:54:00
8:13 AM,64.4,62.6,94,30.09,4.0,NNE,16.1,26.5,0.07,Rain,Rain,20,2013-10-09 12:13:00
8:28 AM,64.4,62.6,94,30.08,5.0,NNE,19.6,26.5,0.10,Rain,Rain,20,2013-10-09 12:28:00
8:54 AM,64.9,63.0,93,30.08,5.0,NNE,18.4,28.8,0.15,Rain,Light Rain,30,2013-10-09 12:54:00
9:16 AM,64.4,62.6,94,30.05,3.0,NNE,26.5,34.5,0.05,Rain,Rain,20,2013-10-09 13:16:00
9:23 AM,64.4,62.6,94,30.05,4.0,NNE,23.0,35.7,0.06,Rain,Light Rain,30,2013-10-09 13:23:00
9:41 AM,64.4,62.6,94,30.05,2.0,NNE,27.6,38.0,0.13,Rain,Rain,30,2013-10-09 13:41:00
9:52 AM,64.4,62.6,94,30.05,7.0,NNE,25.3,36.8,0.14,Rain,Light Rain,20,2013-10-09 13:52:00
9:54 AM,64.9,63.0,93,30.05,8.0,NNE,26.5,34.5,0.14,Rain,Light Rain,30,2013-10-09 13:54:00
10:54 AM,66.0,63.0,90,30.04,8.0,NNE,26.5,35.7,0.05,Rain,Light Rain,20,2013-10-09 14:54:00
11:12 AM,64.4,62.6,94,30.04,1.8,NNE,26.5,33.4,0.05,Rain,Rain,20,2013-10-09 15:12:00
11:22 AM,64.4,62.6,94,30.05,2.0,NNE,27.6,38.0,0.09,Rain,Rain,30,2013-10-09 15:22:00
11:30 AM,64.4,62.6,94,30.05,3.0,NNE,19.6,34.5,0.11,Rain,Rain,20,2013-10-09 15:30:00
11:46 AM,64.4,64.4,100,30.05,1.8,North,26.5,34.5,0.19,Rain,Heavy Rain,10,2013-10-09 15:46:00
11:54 AM,64.9,63.0,93,30.05,2.0,North,26.5,35.7,0.21,Rain,Rain,10,2013-10-09 15:54:00
12:08 PM,64.4,62.6,94,30.05,1.8,NNE,20.7,34.5,0.06,Rain,Heavy Rain,20,2013-10-09 16:08:00
12:37 PM,64.4,64.4,100,30.03,1.0,North,24.2,31.1,0.29,Rain,Heavy Rain,10,2013-10-09 16:37:00
12:43 PM,66.2,64.4,94,30.03,2.0,NNE,24.2,33.4,0.31,Rain,Rain,20,2013-10-09 16:43:00
12:46 PM,66.2,64.4,94,30.03,3.0,North,21.9,33.4,0.31,Rain,Light Rain,10,2013-10-09 16:46:00
12:54 PM,66.0,64.0,93,30.03,3.0,NNE,21.9,35.7,0.33,Rain,Rain,20,2013-10-09 16:54:00
1:24 PM,66.2,64.4,94,30.02,2.0,North,23.0,34.5,0.04,Rain,Light Rain,10,2013-10-09 17:24:00
1:33 PM,66.2,64.4,94,30.01,4.0,NNE,24.2,32.2,0.05,Rain,Light Rain,20,2013-10-09 17:33:00
1:54 PM,66.0,64.0,93,30.00,5.0,North,23.0,31.1,0.06,Rain,Light Rain,10,2013-10-09 17:54:00
2:13 PM,66.2,64.4,94,29.99,2.0,North,20.7,32.2,0.03,Rain,Rain,360,2013-10-09 18:13:00
2:24 PM,66.2,64.4,94,29.99,4.0,North,23.0,33.4,0.04,Rain,Light Rain,10,2013-10-09 18:24:00
2:54 PM,66.0,64.0,93,29.99,7.0,North,20.7,29.9,0.05,Rain,Light Rain,360,2013-10-09 18:54:00
3:07 PM,66.2,64.4,94,29.99,2.5,North,23.0,29.9,0.01,Rain,Rain,360,2013-10-09 19:07:00
3:16 PM,66.2,64.4,94,29.99,2.0,North,19.6,27.6,0.03,Rain,Light Rain,360,2013-10-09 19:16:00
3:31 PM,66.2,64.4,94,29.99,1.5,North,21.9,-,0.09,Rain,Rain,10,2013-10-09 19:31:00
3:54 PM,66.0,64.0,93,29.99,1.5,North,17.3,31.1,0.33,Rain,Heavy Rain,360,2013-10-09 19:54:00
4:01 PM,66.2,64.4,94,29.99,1.8,North,17.3,25.3,0.04,Rain,Heavy Rain,360,2013-10-09 20:01:00
4:05 PM,66.2,64.4,94,29.99,2.0,North,18.4,-,0.06,Rain,Heavy Rain,10,2013-10-09 20:05:00
4:26 PM,66.2,64.4,94,29.98,4.0,North,21.9,29.9,0.10,Rain,Light Rain,10,2013-10-09 20:26:00
4:47 PM,66.2,64.4,94,29.98,1.8,North,25.3,33.4,0.16,Rain,Heavy Rain,360,2013-10-09 20:47:00
4:54 PM,66.0,64.0,93,29.97,1.8,North,20.7,29.9,0.19,Rain,Rain,360,2013-10-09 20:54:00
5:54 PM,66.0,64.9,96,29.97,1.0,North,21.9,27.6,0.27,Rain,Heavy Rain,10,2013-10-09 21:54:00
6:00 PM,66.2,64.4,94,29.97,2.0,North,19.6,-,0.01,Rain,Rain,10,2013-10-09 22:00:00
6:13 PM,66.2,66.2,100,29.96,3.0,North,18.4,35.7,0.03,Rain,Light Rain,10,2013-10-09 22:13:00
6:20 PM,66.2,64.4,94,29.96,2.0,NNE,25.3,38.0,0.04,Rain,Light Rain,20,2013-10-09 22:20:00
6:54 PM,66.9,64.9,93,29.95,2.0,NNE,24.2,33.4,0.04,Rain,Light Rain,20,2013-10-09 22:54:00
7:01 PM,66.2,64.4,94,29.95,10.0,NNE,23.0,33.4,0.00,,Overcast,20,2013-10-09 23:01:00
7:54 PM,66.9,64.9,93,29.95,7.0,North,18.4,-,0.01,Rain,Light Rain,10,2013-10-09 23:54:00
8:23 PM,66.2,66.2,100,29.95,1.8,North,19.6,25.3,0.08,Rain,Heavy Rain,10,2013-10-10 00:23:00
8:35 PM,66.2,66.2,100,29.94,2.0,North,17.3,-,0.17,Rain,Heavy Rain,360,2013-10-10 00:35:00
8:45 PM,66.2,66.2,100,29.95,4.0,North,17.3,-,0.21,Rain,Rain,10,2013-10-10 00:45:00
8:52 PM,66.2,66.2,100,29.95,4.0,North,18.4,25.3,0.23,Rain,Rain,360,2013-10-10 00:52:00
8:54 PM,66.9,66.0,97,29.95,4.0,North,15.0,25.3,0.24,Rain,Rain,360,2013-10-10 00:54:00
9:03 PM,66.2,66.2,100,29.95,4.0,North,18.4,-,0.03,Rain,Rain,10,2013-10-10 01:03:00
9:11 PM,68.0,66.2,94,29.94,4.0,North,16.1,24.2,0.07,Rain,Rain,350,2013-10-10 01:11:00
9:54 PM,69.1,66.9,93,29.94,10.0,NNE,20.7,26.5,0.11,Rain,Light Rain,30,2013-10-10 01:54:00
10:45 PM,68.0,66.2,94,29.94,10.0,NNE,20.7,32.2,0.00,Rain,Light Rain,20,2013-10-10 02:45:00
10:54 PM,68.0,66.0,93,29.94,10.0,NNE,17.3,32.2,0.00,Rain,Light Rain,20,2013-10-10 02:54:00
11:07 PM,68.0,66.2,94,29.93,2.5,North,18.4,31.1,0.06,Rain,Heavy Rain,360,2013-10-10 03:07:00
11:16 PM,68.0,66.2,94,29.94,2.5,NNE,11.5,24.2,0.12,Rain,Heavy Rain,20,2013-10-10 03:16:00
11:23 PM,68.0,66.2,94,29.95,1.8,NNE,15.0,-,0.25,Rain,Heavy Rain,20,2013-10-10 03:23:00
11:33 PM,66.2,66.2,100,29.93,2.0,North,15.0,25.3,0.33,Rain,Rain,350,2013-10-10 03:33:00
11:41 PM,68.0,66.2,94,29.93,6.0,North,13.8,25.3,0.34,Rain,Light Rain,360,2013-10-10 03:41:00
11:54 PM,68.0,66.0,93,29.93,10.0,NW,11.5,23.0,0.34,Rain,Light Rain,320,2013-10-10 03:54:00